Time,TemperatureF,DewpointF,PressureIn,WindDirection,WindDirectionDegrees,WindSpeedMPH,WindSpeedGustMPH,Humidity,HourlyPrecipIn,Conditions,Clouds,dailyrainin,SolarRadiationWatts/m^2,SoftwareType,DateUTC
2013-02-26 00:11:00,45.0,16.0,-100.00,SSW,192,5.0,6.0,31,0.00,,,0.00,0.000000,,2013-02-26 08:11:00,
2013-02-26 00:21:00,45.0,16.0,-100.00,SSW,192,5.0,6.0,31,0.00,,,0.00,0.000000,,2013-02-26 08:21:00,
2013-02-26 00:31:00,45.0,16.0,-100.00,SSW,192,5.0,6.0,31,0.00,,,0.00,0.000000,,2013-02-26 08:31:00,
2013-02-26 00:41:00,45.0,16.0,-100.00,SSW,192,5.0,6.0,31,0.00,,,0.00,0.000000,,2013-02-26 08:41:00,
2013-02-26 01:11:00,40.0,19.0,-100.00,SE,145,5.0,7.0,43,0.00,,,0.00,0.000000,,2013-02-26 09:11:00,
2013-02-26 01:21:00,40.0,19.0,-100.00,SE,145,5.0,7.0,43,0.00,,,0.00,0.000000,,2013-02-26 09:21:00,
2013-02-26 01:31:00,40.0,19.0,-100.00,SE,145,5.0,7.0,43,0.00,,,0.00,0.000000,,2013-02-26 09:31:00,
2013-02-26 01:43:00,40.0,19.0,-100.00,SE,145,5.0,7.0,43,0.00,,,0.00,0.000000,,2013-02-26 09:43:00,
2013-02-26 02:11:00,39.0,21.0,-100.00,SE,128,3.0,7.0,48,0.00,,,0.00,0.000000,,2013-02-26 10:11:00,
2013-02-26 02:21:00,39.0,21.0,-100.00,SE,128,3.0,7.0,48,0.00,,,0.00,0.000000,,2013-02-26 10:21:00,
2013-02-26 02:31:00,39.0,21.0,-100.00,SE,128,3.0,7.0,48,0.00,,,0.00,0.000000,,2013-02-26 10:31:00,
2013-02-26 02:41:00,39.0,21.0,-100.00,SE,128,3.0,7.0,48,0.00,,,0.00,0.000000,,2013-02-26 10:41:00,
2013-02-26 03:11:00,35.0,19.0,-100.00,SW,215,2.0,5.0,51,0.00,,,0.00,0.000000,,2013-02-26 11:11:00,
2013-02-26 03:21:00,35.0,19.0,-100.00,SW,215,2.0,5.0,51,0.00,,,0.00,0.000000,,2013-02-26 11:21:00,
2013-02-26 03:31:00,35.0,19.0,-100.00,SW,215,2.0,5.0,51,0.00,,,0.00,0.000000,,2013-02-26 11:31:00,
2013-02-26 03:41:00,35.0,19.0,-100.00,SW,215,2.0,5.0,51,0.00,,,0.00,0.000000,,2013-02-26 11:41:00,
2013-02-26 04:11:00,30.0,19.0,-100.00,NE,49,2.0,5.0,63,0.00,,,0.00,0.000000,,2013-02-26 12:11:00,
2013-02-26 04:22:00,30.0,19.0,-100.00,NE,49,2.0,5.0,63,0.00,,,0.00,0.000000,,2013-02-26 12:22:00,
2013-02-26 05:11:00,31.0,24.0,-100.00,NE,38,1.0,6.0,75,-99.99,,,0.00,0.000000,,2013-02-26 13:11:00,
2013-02-26 05:21:00,31.0,24.0,-100.00,NE,38,1.0,6.0,75,-99.99,,,0.00,0.000000,,2013-02-26 13:21:00,
2013-02-26 06:11:00,30.0,23.0,-100.00,East,79,3.0,4.0,74,-99.99,,,0.00,0.000000,,2013-02-26 14:11:00,
2013-02-26 06:21:00,30.0,23.0,-100.00,East,79,3.0,4.0,74,-99.99,,,0.00,0.000000,,2013-02-26 14:21:00,
2013-02-26 07:11:00,31.0,22.0,-100.00,NNW,344,2.0,4.0,68,-99.99,,,0.00,35.000000,,2013-02-26 15:11:00,
2013-02-26 07:21:00,31.0,22.0,-100.00,NNW,344,2.0,4.0,68,-99.99,,,0.00,35.000000,,2013-02-26 15:21:00,
2013-02-26 08:11:00,42.0,26.0,-100.00,NW,318,2.0,4.0,53,-99.99,,,0.00,266.000000,,2013-02-26 16:11:00,
2013-02-26 08:22:00,42.0,26.0,-100.00,NW,318,2.0,4.0,53,-99.99,,,0.00,266.000000,,2013-02-26 16:22:00,
2013-02-26 08:31:00,42.0,26.0,-100.00,NW,318,2.0,4.0,53,-99.99,,,0.00,266.000000,,2013-02-26 16:31:00,
2013-02-26 08:41:00,42.0,26.0,-100.00,NW,318,2.0,4.0,53,-99.99,,,0.00,266.000000,,2013-02-26 16:41:00,
2013-02-26 09:11:00,54.0,20.0,-100.00,North,352,7.0,10.0,26,0.00,,,0.00,509.000000,,2013-02-26 17:11:00,
2013-02-26 09:21:00,54.0,20.0,-100.00,North,352,7.0,10.0,26,0.00,,,0.00,509.000000,,2013-02-26 17:21:00,
2013-02-26 09:32:00,54.0,20.0,-100.00,North,352,7.0,10.0,26,0.00,,,0.00,509.000000,,2013-02-26 17:32:00,
2013-02-26 09:41:00,54.0,20.0,-100.00,North,352,7.0,10.0,26,0.00,,,0.00,509.000000,,2013-02-26 17:41:00,
2013-02-26 10:12:00,58.0,21.0,-100.00,North,4,8.0,13.0,24,0.00,,,0.00,716.000000,,2013-02-26 18:12:00,
2013-02-26 10:21:00,58.0,21.0,-100.00,North,4,8.0,13.0,24,0.00,,,0.00,716.000000,,2013-02-26 18:21:00,
2013-02-26 10:32:00,58.0,21.0,-100.00,North,4,8.0,13.0,24,0.00,,,0.00,716.000000,,2013-02-26 18:32:00,
2013-02-26 10:42:00,58.0,21.0,-100.00,North,4,8.0,13.0,24,0.00,,,0.00,716.000000,,2013-02-26 18:42:00,
2013-02-26 11:11:00,63.0,24.0,-100.00,North,0,10.0,15.0,22,0.00,,,0.00,861.000000,,2013-02-26 19:11:00,
2013-02-26 11:22:00,63.0,24.0,-100.00,North,0,10.0,15.0,22,0.00,,,0.00,861.000000,,2013-02-26 19:22:00,
2013-02-26 11:31:00,63.0,24.0,-100.00,North,0,10.0,15.0,22,0.00,,,0.00,861.000000,,2013-02-26 19:31:00,
2013-02-26 11:41:00,63.0,24.0,-100.00,North,0,10.0,15.0,22,0.00,,,0.00,861.000000,,2013-02-26 19:41:00,
2013-02-26 12:11:00,67.0,19.0,-100.00,North,2,11.0,20.0,16,0.00,,,-99.99,936.000000,,2013-02-26 20:11:00,
2013-02-26 12:21:00,67.0,19.0,-100.00,North,2,11.0,20.0,16,0.00,,,-99.99,936.000000,,2013-02-26 20:21:00,
2013-02-26 12:31:00,67.0,19.0,-100.00,North,2,11.0,20.0,16,0.00,,,-99.99,936.000000,,2013-02-26 20:31:00,
2013-02-26 12:41:00,67.0,19.0,-100.00,North,2,11.0,20.0,16,0.00,,,-99.99,936.000000,,2013-02-26 20:41:00,
2013-02-26 14:11:00,71.0,9.0,-100.00,NNW,341,15.0,23.0,9,-99.99,,,0.00,849.000000,,2013-02-26 22:11:00,
2013-02-26 14:21:00,71.0,9.0,-100.00,NNW,341,15.0,23.0,9,-99.99,,,0.00,849.000000,,2013-02-26 22:21:00,
2013-02-26 14:31:00,71.0,9.0,-100.00,NNW,341,15.0,23.0,9,-99.99,,,0.00,849.000000,,2013-02-26 22:31:00,
2013-02-26 14:41:00,71.0,9.0,-100.00,NNW,341,15.0,23.0,9,-99.99,,,0.00,849.000000,,2013-02-26 22:41:00,
2013-02-26 15:11:00,71.0,7.0,-100.00,NNW,345,14.0,25.0,8,0.00,,,0.00,700.000000,,2013-02-26 23:11:00,
2013-02-26 15:21:00,71.0,7.0,-100.00,NNW,345,14.0,25.0,8,0.00,,,0.00,700.000000,,2013-02-26 23:21:00,
2013-02-26 15:31:00,71.0,7.0,-100.00,NNW,345,14.0,25.0,8,0.00,,,0.00,700.000000,,2013-02-26 23:31:00,
2013-02-26 15:41:00,71.0,7.0,-100.00,NNW,345,14.0,25.0,8,0.00,,,0.00,700.000000,,2013-02-26 23:41:00,
2013-02-26 16:11:00,70.0,11.0,-100.00,NNW,340,12.0,22.0,10,0.00,,,0.00,490.000000,,2013-02-27 00:11:00,
2013-02-26 16:21:00,70.0,11.0,-100.00,NNW,340,12.0,22.0,10,0.00,,,0.00,490.000000,,2013-02-27 00:21:00,
2013-02-26 16:31:00,70.0,11.0,-100.00,NNW,340,12.0,22.0,10,0.00,,,0.00,490.000000,,2013-02-27 00:31:00,
2013-02-26 16:41:00,70.0,11.0,-100.00,NNW,340,12.0,22.0,10,0.00,,,0.00,490.000000,,2013-02-27 00:41:00,
2013-02-26 17:11:00,68.0,14.0,-100.00,North,359,11.0,20.0,12,0.00,,,0.00,253.000000,,2013-02-27 01:11:00,
2013-02-26 17:21:00,68.0,14.0,-100.00,North,359,11.0,20.0,12,0.00,,,0.00,253.000000,,2013-02-27 01:21:00,
2013-02-26 17:31:00,68.0,14.0,-100.00,North,359,11.0,20.0,12,0.00,,,0.00,253.000000,,2013-02-27 01:31:00,
2013-02-26 17:41:00,68.0,14.0,-100.00,North,359,11.0,20.0,12,0.00,,,0.00,253.000000,,2013-02-27 01:41:00,
2013-02-26 18:13:00,60.0,18.0,-100.00,NNW,346,7.0,17.0,19,0.00,,,0.00,33.000000,,2013-02-27 02:13:00,
2013-02-26 18:22:00,60.0,18.0,-100.00,NNW,346,7.0,17.0,19,0.00,,,0.00,33.000000,,2013-02-27 02:22:00,
2013-02-26 18:32:00,60.0,18.0,-100.00,NNW,346,7.0,17.0,19,0.00,,,0.00,33.000000,,2013-02-27 02:32:00,
2013-02-26 18:41:00,60.0,18.0,-100.00,NNW,346,7.0,17.0,19,0.00,,,0.00,33.000000,,2013-02-27 02:41:00,
2013-02-26 19:11:00,58.0,13.0,-100.00,NNW,331,8.0,14.0,17,0.00,,,0.00,0.000000,,2013-02-27 03:11:00,
2013-02-26 19:21:00,58.0,13.0,-100.00,NNW,331,8.0,14.0,17,0.00,,,0.00,0.000000,,2013-02-27 03:21:00,
2013-02-26 19:31:00,58.0,13.0,-100.00,NNW,331,8.0,14.0,17,0.00,,,0.00,0.000000,,2013-02-27 03:31:00,
2013-02-26 19:41:00,58.0,13.0,-100.00,NNW,331,8.0,14.0,17,0.00,,,0.00,0.000000,,2013-02-27 03:41:00,
2013-02-26 20:11:00,58.0,11.0,-100.00,North,359,10.0,15.0,15,0.00,,,0.00,0.000000,,2013-02-27 04:11:00,
2013-02-26 20:21:00,58.0,11.0,-100.00,North,359,10.0,15.0,15,0.00,,,0.00,0.000000,,2013-02-27 04:21:00,
2013-02-26 20:31:00,58.0,11.0,-100.00,North,359,10.0,15.0,15,0.00,,,0.00,0.000000,,2013-02-27 04:31:00,
2013-02-26 20:41:00,58.0,11.0,-100.00,North,359,10.0,15.0,15,0.00,,,0.00,0.000000,,2013-02-27 04:41:00,
2013-02-26 21:11:00,55.0,12.0,-100.00,NNE,25,7.0,14.0,18,0.00,,,0.00,0.000000,,2013-02-27 05:11:00,
2013-02-26 21:22:00,55.0,12.0,-100.00,NNE,25,7.0,14.0,18,0.00,,,0.00,0.000000,,2013-02-27 05:22:00,
2013-02-26 21:32:00,55.0,12.0,-100.00,NNE,25,7.0,14.0,18,0.00,,,0.00,0.000000,,2013-02-27 05:32:00,
2013-02-26 21:41:00,55.0,12.0,-100.00,NNE,25,7.0,14.0,18,0.00,,,0.00,0.000000,,2013-02-27 05:41:00,
2013-02-26 22:11:00,50.0,14.0,-100.00,West,276,4.0,10.0,23,0.00,,,0.00,0.000000,,2013-02-27 06:11:00,
2013-02-26 22:21:00,50.0,14.0,-100.00,West,276,4.0,10.0,23,0.00,,,0.00,0.000000,,2013-02-27 06:21:00,
2013-02-26 23:12:00,46.0,16.0,-100.00,WSW,248,2.0,7.0,29,-99.99,,,0.00,0.000000,,2013-02-27 07:12:00,
2013-02-26 23:21:00,46.0,16.0,-100.00,WSW,248,2.0,7.0,29,-99.99,,,0.00,0.000000,,2013-02-27 07:21:00,